SWA442 KSAN-KFAT

Flight info

Callsign SWA442
Flight time 0h 48m
Altitude 36000
Route PADRZ2 EHF FRA
Aircraft B737/M-SDE2E3FGHIRWXY/LB1

Departure

Time 2026-05-03 22:25
Airport San Diego International Airport (KSAN)

Arrival

Time 2026-05-03 23:13
Airport Fresno Yosemite International Airport (KFAT)
Time Latitude Longitude Altitude Speed Heading
2026-05-03 21:57 32.73315 -117.19680 19 ft 0 kts 141°
2026-05-03 22:10 32.73318 -117.19682 19 ft 2 kts 139°
2026-05-03 22:10 32.73328 -117.19697 20 ft 3 kts 96°
2026-05-03 22:10 32.73324 -117.19716 20 ft 3 kts 44°
2026-05-03 22:11 32.73311 -117.19727 21 ft 1 kts 14°
2026-05-03 22:11 32.73317 -117.19725 19 ft 3 kts 13°
2026-05-03 22:11 32.73336 -117.19720 19 ft 3 kts 14°
2026-05-03 22:11 32.73356 -117.19713 20 ft 3 kts 19°
2026-05-03 22:12 32.73365 -117.19708 20 ft 0 kts 20°
2026-05-03 22:12 32.73365 -117.19709 20 ft 0 kts 20°
2026-05-03 22:15 32.73368 -117.19707 20 ft 2 kts 20°
2026-05-03 22:15 32.73399 -117.19694 22 ft 7 kts 26°
2026-05-03 22:16 32.73414 -117.19625 22 ft 12 kts 104°
2026-05-03 22:16 32.73385 -117.19505 26 ft 17 kts 106°
2026-05-03 22:16 32.73351 -117.19363 21 ft 18 kts 106°
2026-05-03 22:16 32.73316 -117.19223 19 ft 17 kts 106°
2026-05-03 22:17 32.73285 -117.19088 23 ft 17 kts 104°
2026-05-03 22:17 32.73253 -117.18958 21 ft 16 kts 107°
2026-05-03 22:17 32.73222 -117.18834 22 ft 15 kts 105°
2026-05-03 22:17 32.73193 -117.18714 25 ft 15 kts 106°
2026-05-03 22:18 32.73165 -117.18599 24 ft 14 kts 105°
2026-05-03 22:18 32.73139 -117.18489 21 ft 14 kts 106°
2026-05-03 22:18 32.73114 -117.18385 22 ft 13 kts 106°
2026-05-03 22:18 32.73090 -117.18283 20 ft 13 kts 105°
2026-05-03 22:19 32.73064 -117.18177 18 ft 15 kts 107°
2026-05-03 22:19 32.73030 -117.18044 16 ft 18 kts 106°
2026-05-03 22:19 32.72997 -117.17906 18 ft 17 kts 106°
2026-05-03 22:19 32.72966 -117.17779 16 ft 14 kts 106°
2026-05-03 22:20 32.72951 -117.17689 16 ft 7 kts 87°
2026-05-03 22:20 32.72953 -117.17670 16 ft 0 kts 77°
2026-05-03 22:23 32.72954 -117.17664 17 ft 3 kts 77°
2026-05-03 22:23 32.72961 -117.17634 19 ft 7 kts 74°
2026-05-03 22:23 32.72996 -117.17581 20 ft 9 kts
2026-05-03 22:23 32.73029 -117.17616 18 ft 3 kts 290°
2026-05-03 22:24 32.73031 -117.17623 18 ft 0 kts 286°
2026-05-03 22:24 32.73033 -117.17629 18 ft 3 kts 287°
2026-05-03 22:24 32.73092 -117.17876 17 ft 70 kts 286°
2026-05-03 22:25 32.73212 -117.18369 20 ft 117 kts 286°
2026-05-03 22:25 32.73597 -117.19914 477 ft 155 kts 288°
2026-05-03 22:25 32.73806 -117.20727 1108 ft 154 kts 287°
2026-05-03 22:25 32.74265 -117.21899 1928 ft 167 kts 304°
2026-05-03 22:26 32.75017 -117.23112 2460 ft 197 kts 304°
2026-05-03 22:26 32.75842 -117.24529 2993 ft 217 kts 302°
2026-05-03 22:26 32.76678 -117.26036 3802 ft 226 kts 302°
2026-05-03 22:26 32.77592 -117.27651 4504 ft 245 kts 302°
2026-05-03 22:27 32.78576 -117.29373 5318 ft 256 kts 301°
2026-05-03 22:27 32.79573 -117.31131 6385 ft 257 kts 300°
2026-05-03 22:27 32.80611 -117.32920 7203 ft 268 kts 302°
2026-05-03 22:27 32.81752 -117.34694 8167 ft 270 kts 304°
2026-05-03 22:28 32.82906 -117.36446 9236 ft 269 kts 304°
2026-05-03 22:28 32.84061 -117.38209 10147 ft 274 kts 304°
2026-05-03 22:28 32.85241 -117.40031 10932 ft 281 kts 303°
2026-05-03 22:28 32.86481 -117.41959 11250 ft 308 kts 303°
2026-05-03 22:29 32.87845 -117.44082 11488 ft 336 kts 304°
2026-05-03 22:29 32.89322 -117.46377 11786 ft 359 kts 304°
2026-05-03 22:29 32.90858 -117.48757 12538 ft 365 kts 304°
2026-05-03 22:29 32.92383 -117.51123 13454 ft 366 kts 304°
2026-05-03 22:30 32.93942 -117.53548 14317 ft 369 kts 303°
2026-05-03 22:30 32.95507 -117.55985 15181 ft 371 kts 303°
2026-05-03 22:30 32.97075 -117.58430 16065 ft 372 kts 303°
2026-05-03 22:30 32.98648 -117.60886 16935 ft 374 kts 303°
2026-05-03 22:31 33.00233 -117.63362 17787 ft 377 kts 302°
2026-05-03 22:31 33.01826 -117.65851 18548 ft 379 kts 302°
2026-05-03 22:31 33.03430 -117.68358 19258 ft 382 kts 302°
2026-05-03 22:31 33.05045 -117.70885 19955 ft 384 kts 302°
2026-05-03 22:32 33.06698 -117.73360 20656 ft 390 kts 307°
2026-05-03 22:32 33.08721 -117.75570 21361 ft 397 kts 314°
2026-05-03 22:32 33.10868 -117.77674 22050 ft 400 kts 314°
2026-05-03 22:32 33.13037 -117.79783 22679 ft 403 kts 314°
2026-05-03 22:33 33.15204 -117.81934 23299 ft 406 kts 313°
2026-05-03 22:33 33.17366 -117.84121 23884 ft 408 kts 313°
2026-05-03 22:33 33.19531 -117.86330 24434 ft 410 kts 313°
2026-05-03 22:33 33.21728 -117.88521 24976 ft 413 kts 313°
2026-05-03 22:34 33.23939 -117.90679 25494 ft 415 kts 314°
2026-05-03 22:34 33.26188 -117.92860 26000 ft 417 kts 314°
2026-05-03 22:34 33.28453 -117.95055 26514 ft 420 kts 313°
2026-05-03 22:34 33.30729 -117.97267 26989 ft 422 kts 313°
2026-05-03 22:35 33.33014 -117.99495 27450 ft 425 kts 313°
2026-05-03 22:35 33.35284 -118.01713 27927 ft 427 kts 313°
2026-05-03 22:35 33.37580 -118.03960 28379 ft 429 kts 313°
2026-05-03 22:35 33.39909 -118.06241 28811 ft 432 kts 313°
2026-05-03 22:36 33.42243 -118.08530 29227 ft 434 kts 313°
2026-05-03 22:36 33.44587 -118.10831 29645 ft 437 kts 313°
2026-05-03 22:36 33.46946 -118.13146 30067 ft 439 kts 313°
2026-05-03 22:36 33.49287 -118.15445 30535 ft 437 kts 313°
2026-05-03 22:37 33.51630 -118.17743 31195 ft 431 kts 312°
2026-05-03 22:37 33.53901 -118.19973 31906 ft 423 kts 312°
2026-05-03 22:37 33.56162 -118.22197 32533 ft 418 kts 311°
2026-05-03 22:37 33.58538 -118.24252 33001 ft 430 kts 322°
2026-05-03 22:38 33.61276 -118.25781 33455 ft 434 kts 326°
2026-05-03 22:38 33.64039 -118.27239 33963 ft 432 kts 326°
2026-05-03 22:38 33.66781 -118.28696 34388 ft 429 kts 325°
2026-05-03 22:38 33.69501 -118.30171 34727 ft 428 kts 325°
2026-05-03 22:39 33.72205 -118.31659 35022 ft 428 kts 325°
2026-05-03 22:39 33.74911 -118.33156 35374 ft 426 kts 325°
2026-05-03 22:39 33.77606 -118.34622 35767 ft 426 kts 326°
2026-05-03 22:39 33.80349 -118.36023 35982 ft 429 kts 327°
2026-05-03 22:40 33.83123 -118.37401 36013 ft 434 kts 327°
2026-05-03 22:40 33.85237 -118.38446 36018 ft 434 kts 328°
2026-05-03 22:41 33.90808 -118.41223 36016 ft 430 kts 327°
2026-05-03 22:41 33.96316 -118.44007 36031 ft 428 kts 327°
2026-05-03 22:42 34.01979 -118.46427 36019 ft 445 kts 341°
2026-05-03 22:42 34.08158 -118.47381 36034 ft 449 kts 344°
2026-05-03 22:43 34.14382 -118.48216 36011 ft 450 kts 344°
2026-05-03 22:43 34.20562 -118.49108 36019 ft 450 kts 344°
2026-05-03 22:44 34.26787 -118.50056 36015 ft 451 kts 344°
2026-05-03 22:44 34.33018 -118.51020 36032 ft 452 kts 344°
2026-05-03 22:45 34.39264 -118.51988 36024 ft 453 kts 344°
2026-05-03 22:45 34.45530 -118.52958 36007 ft 454 kts 344°
2026-05-03 22:46 34.51815 -118.53931 35993 ft 456 kts 345°
2026-05-03 22:46 34.58076 -118.54902 35977 ft 457 kts 345°
2026-05-03 22:47 34.64401 -118.55884 35960 ft 458 kts 345°
2026-05-03 22:47 34.70727 -118.56868 35946 ft 458 kts 345°
2026-05-03 22:48 34.77044 -118.57852 35946 ft 458 kts 345°
2026-05-03 22:48 34.83378 -118.58840 35942 ft 458 kts 345°
2026-05-03 22:49 34.89661 -118.59823 35950 ft 458 kts 345°
2026-05-03 22:49 34.95989 -118.60813 35964 ft 458 kts 346°
2026-05-03 22:50 35.02066 -118.62626 35978 ft 436 kts 324°
2026-05-03 22:50 35.06794 -118.67030 35961 ft 426 kts 313°
2026-05-03 22:51 35.11312 -118.71745 35940 ft 428 kts 313°
2026-05-03 22:51 35.15868 -118.76441 35942 ft 429 kts 314°
2026-05-03 22:52 35.20454 -118.81117 35898 ft 430 kts 314°
2026-05-03 22:52 35.22768 -118.83473 35358 ft 438 kts 314°
2026-05-03 22:52 35.25078 -118.85826 34712 ft 437 kts 314°
2026-05-03 22:52 35.27419 -118.88209 33956 ft 438 kts 314°
2026-05-03 22:53 35.29767 -118.90602 33081 ft 440 kts 314°
2026-05-03 22:53 35.32125 -118.93007 32244 ft 441 kts 314°
2026-05-03 22:53 35.34476 -118.95407 31592 ft 438 kts 314°
2026-05-03 22:53 35.36804 -118.97784 30988 ft 434 kts 315°
2026-05-03 22:54 35.39118 -119.00152 30409 ft 430 kts 314°
2026-05-03 22:54 35.41406 -119.02494 29822 ft 427 kts 314°
2026-05-03 22:54 35.43673 -119.04817 29171 ft 423 kts 315°
2026-05-03 22:54 35.45949 -119.07092 28554 ft 421 kts 320°
2026-05-03 22:55 35.48611 -119.08658 27968 ft 428 kts 339°
2026-05-03 22:55 35.51562 -119.09218 27347 ft 434 kts 357°
2026-05-03 22:55 35.54530 -119.08857 26800 ft 433 kts
2026-05-03 22:55 35.57499 -119.08303 26215 ft 430 kts
2026-05-03 22:56 35.60441 -119.07713 25646 ft 427 kts
2026-05-03 22:56 35.63363 -119.07134 25069 ft 424 kts
2026-05-03 22:56 35.66275 -119.06579 24487 ft 422 kts
2026-05-03 22:56 35.69168 -119.06046 23897 ft 419 kts
2026-05-03 22:57 35.72051 -119.05526 23252 ft 418 kts
2026-05-03 22:57 35.74927 -119.05012 22587 ft 415 kts
2026-05-03 22:57 35.77774 -119.04505 21965 ft 411 kts
2026-05-03 22:57 35.80593 -119.04001 21393 ft 406 kts
2026-05-03 22:58 35.83383 -119.03502 20790 ft 403 kts
2026-05-03 22:58 35.86144 -119.03007 20239 ft 399 kts
2026-05-03 22:58 35.88882 -119.02517 19665 ft 395 kts
2026-05-03 22:58 35.91607 -119.02407 19086 ft 391 kts 351°
2026-05-03 22:59 35.94198 -119.03292 18594 ft 385 kts 339°
2026-05-03 22:59 35.96663 -119.04447 18014 ft 382 kts 337°
2026-05-03 22:59 35.99163 -119.05676 17380 ft 380 kts 337°
2026-05-03 22:59 36.01606 -119.06886 16797 ft 377 kts 338°
2026-05-03 23:00 36.04004 -119.08064 16249 ft 374 kts 338°
2026-05-03 23:00 36.06414 -119.09235 15696 ft 371 kts 338°
2026-05-03 23:00 36.08817 -119.10394 15146 ft 369 kts 339°
2026-05-03 23:00 36.11208 -119.11541 14607 ft 367 kts 339°
2026-05-03 23:01 36.13591 -119.12681 14067 ft 366 kts 339°
2026-05-03 23:01 36.15961 -119.13813 13492 ft 365 kts 339°
2026-05-03 23:01 36.18335 -119.14947 12896 ft 364 kts 339°
2026-05-03 23:01 36.20696 -119.16075 12322 ft 363 kts 339°
2026-05-03 23:02 36.23042 -119.17196 11753 ft 361 kts 339°
2026-05-03 23:02 36.25378 -119.18314 11193 ft 359 kts 339°
2026-05-03 23:02 36.27707 -119.19430 10623 ft 359 kts 338°
2026-05-03 23:02 36.30001 -119.20530 10431 ft 346 kts 338°
2026-05-03 23:03 36.32209 -119.21588 10225 ft 334 kts 338°
2026-05-03 23:03 36.34343 -119.22612 10078 ft 322 kts 338°
2026-05-03 23:03 36.36402 -119.23600 9862 ft 314 kts 338°
2026-05-03 23:03 36.38437 -119.24578 9449 ft 313 kts 338°
2026-05-03 23:04 36.40467 -119.25555 9072 ft 311 kts 338°
2026-05-03 23:04 36.42484 -119.26525 8669 ft 310 kts 338°
2026-05-03 23:04 36.44486 -119.27489 8284 ft 305 kts 338°
2026-05-03 23:04 36.46417 -119.28419 7896 ft 298 kts 338°
2026-05-03 23:05 36.48327 -119.29339 7535 ft 291 kts 338°
2026-05-03 23:05 36.50198 -119.30240 7174 ft 285 kts 337°
2026-05-03 23:05 36.52034 -119.31126 6828 ft 280 kts 337°
2026-05-03 23:05 36.53836 -119.31994 6478 ft 276 kts 337°
2026-05-03 23:06 36.55459 -119.33218 6116 ft 273 kts 313°
2026-05-03 23:06 36.56638 -119.35048 5780 ft 269 kts 303°
2026-05-03 23:06 36.57722 -119.36940 5432 ft 267 kts 303°
2026-05-03 23:06 36.58785 -119.38801 5084 ft 260 kts 304°
2026-05-03 23:07 36.59817 -119.40605 4775 ft 252 kts 304°
2026-05-03 23:07 36.60824 -119.42358 4447 ft 245 kts 304°
2026-05-03 23:07 36.61805 -119.44062 4122 ft 240 kts 304°
2026-05-03 23:07 36.62764 -119.45724 3848 ft 231 kts 304°
2026-05-03 23:08 36.63670 -119.47296 3754 ft 217 kts 304°
2026-05-03 23:08 36.64526 -119.48783 3690 ft 207 kts 304°
2026-05-03 23:08 36.65390 -119.50225 3584 ft 207 kts 307°
2026-05-03 23:08 36.66256 -119.51654 3499 ft 206 kts 305°
2026-05-03 23:09 36.67092 -119.53092 3422 ft 204 kts 304°
2026-05-03 23:09 36.67897 -119.54511 3293 ft 199 kts 304°
2026-05-03 23:09 36.68687 -119.55903 3081 ft 194 kts 304°
2026-05-03 23:09 36.69453 -119.57260 2847 ft 190 kts 304°
2026-05-03 23:10 36.70213 -119.58597 2591 ft 188 kts 304°
2026-05-03 23:10 36.70958 -119.59913 2377 ft 185 kts 304°
2026-05-03 23:10 36.71702 -119.61221 2110 ft 182 kts 304°
2026-05-03 23:10 36.72415 -119.62479 1889 ft 175 kts 303°
2026-05-03 23:11 36.73117 -119.63716 1672 ft 175 kts 304°
2026-05-03 23:11 36.73822 -119.64959 1431 ft 173 kts 304°
2026-05-03 23:11 36.74271 -119.65751 1308 ft 162 kts 304°
2026-05-03 23:11 36.74887 -119.66835 1061 ft 146 kts 305°
2026-05-03 23:12 36.75446 -119.67819 855 ft 135 kts 303°
2026-05-03 23:12 36.75987 -119.68788 679 ft 136 kts 304°
2026-05-03 23:12 36.76535 -119.69739 512 ft 132 kts 305°
2026-05-03 23:12 36.77059 -119.70661 357 ft 129 kts 305°
2026-05-03 23:13 36.77525 -119.71478 333 ft 92 kts 305°
2026-05-03 23:13 36.77794 -119.71947 336 ft 52 kts 306°
2026-05-03 23:13 36.77958 -119.72233 335 ft 27 kts 305°
2026-05-03 23:13 36.78000 -119.72384 334 ft 17 kts 230°
2026-05-03 23:14 36.77908 -119.72468 336 ft 17 kts 215°
2026-05-03 23:14 36.77814 -119.72548 337 ft 15 kts 210°
2026-05-03 23:14 36.77732 -119.72488 340 ft 16 kts 125°
2026-05-03 23:14 36.77660 -119.72363 338 ft 19 kts 126°
2026-05-03 23:15 36.77584 -119.72232 340 ft 18 kts 126°
2026-05-03 23:15 36.77513 -119.72105 340 ft 18 kts 124°
2026-05-03 23:15 36.77445 -119.71982 340 ft 17 kts 124°
2026-05-03 23:15 36.77382 -119.71872 340 ft 12 kts 126°
2026-05-03 23:16 36.77320 -119.71830 339 ft 9 kts 195°
2026-05-03 23:16 36.77262 -119.71807 339 ft 9 kts 181°
2026-05-03 23:16 36.77227 -119.71835 339 ft 3 kts 216°
2026-05-03 23:16 36.77224 -119.71838 341 ft 0 kts 215°